This demonstration page uses our WeatherBlox Daily Observations layout. Learn more.

40.92945, -100.16068

Hourly Observations for January 30, 2019

Temp ( °F °C ) Dew Point ( °F °C ) Humidity (%) Winds ( mph kmh ) Pressure ( in mb ) Visibility ( mi km ) Precip ( " mm )
12:15 am 00:15 Clear 5 -14.8 -4 -19.8 66 66 N 5 7 30.5 1033 10 16.09344 0 0
12:35 am 00:35 Clear 4 -15.3 -3 -19.5 70 70 N 5 7 30.5 1033 10 16.09344 0 0
12:55 am 00:55 Clear 4 -15.3 -3 -19.6 70 70 NNE 6 9 30.5 1033 10 16.09344 0 0
1:15 am 01:15 Clear 4 -15.6 -4 -19.8 70 70 Calm 30.5 1033 10 16.09344 0 0
1:35 am 01:35 Clear 3 -16 -3 -19.5 75 75 N 3 6 30.5 1033 10 16.09344 0 0
1:55 am 01:55 Clear 3 -16 -3 -19.4 75 75 Calm 30.5 1033 10 16.09344 0 0
2:15 am 02:15 Mostly Cloudy 5 -15.1 -3 -19.3 71 71 Calm 30.48 1032 10 16.09344 0 0
2:35 am 02:35 Cloudy 5 -15.2 -4 -20.1 66 66 Calm 30.48 1032 10 16.09344 0 0
2:55 am 02:55 Cloudy 5 -15.2 -5 -20.5 64 64 Calm 30.48 1032 10 16.09344 0 0
3:15 am 03:15 Cloudy 5 -15.1 -5 -20.5 64 64 Calm 30.48 1032 10 16.09344 0 0
3:35 am 03:35 Cloudy 5 -15.2 -5 -20.4 65 65 ENE 3 6 30.48 1032 10 16.09344 0 0
3:55 am 03:55 Partly Cloudy 4 -15.3 -5 -20.5 65 65 E 3 6 30.45 1031 10 16.09344 0 0
4:15 am 04:15 Clear 4 -15.4 -5 -20.4 66 66 E 3 6 30.45 1031 10 16.09344 0 0
4:35 am 04:35 Partly Cloudy 4 -15.5 -5 -20.5 66 66 E 3 6 30.45 1031 10 16.09344 0 0
4:55 am 04:55 Mostly Cloudy 5 -15.2 -5 -20.3 65 65 E 5 7 30.45 1031 10 16.09344 0 0
5:15 am 05:15 Cloudy 5 -15 -4 -20.2 65 65 E 6 9 30.39 1029 10 16.09344 0 0
5:35 am 05:35 Cloudy 5 -15.1 -4 -20.2 65 65 E 6 9 30.42 1030 10 16.09344 0 0
5:55 am 05:55 Cloudy 5 -15.1 -4 -20 66 66 ESE 7 11 30.42 1030 10 16.09344 0 0
6:15 am 06:15 Mostly Cloudy 5 -15 -3 -19.7 68 68 SE 6 9 30.39 1029 10 16.09344 0 0
6:35 am 06:35 Cloudy 5 -15 -4 -19.9 66 66 SE 6 9 30.39 1029 10 16.09344 0 0
6:55 am 06:55 Mostly Cloudy 5 -14.9 -3 -19.5 68 68 SE 6 9 30.39 1029 10 16.09344 0 0
7:15 am 07:15 Partly Cloudy 5 -15 -3 -19.2 71 71 SE 8 13 30.39 1029 10 16.09344 0 0
7:35 am 07:35 Partly Cloudy 5 -15 -2 -19 72 72 SSE 8 13 30.39 1029 10 16.09344 0 0
8:55 am 08:55 Mostly Cloudy 6 -14.5 -1 -18.6 71 71 S 9 15 30.39 1029 10 16.09344 0 0
9:15 am 09:15 Cloudy 7 -14.1 -1 -18.5 70 70 S 12 19 30.39 1029 10 16.09344 0 0
9:35 am 09:35 Cloudy 7 -13.7 -2 -18.8 66 66 S 14 22 30.39 1029 10 16.09344 0 0
9:55 am 09:55 Partly Cloudy 8 -13.3 -2 -18.7 64 64 S 10 17 30.39 1029 10 16.09344 0 0
10:15 am 10:15 Sunny 9 -13 -1 -18.5 64 64 S 14 22 30.36 1028 10 16.09344 0 0
10:35 am 10:35 Sunny 10 -12.5 -1 -18.3 62 62 SSE 13 20 30.33 1027 10 16.09344 0 0
10:55 am 10:55 Sunny 11 -11.5 0 -18 59 59 S 13 20 30.33 1027 10 16.09344 0 0
11:15 am 11:15 Sunny 13 -10.7 0 -17.7 57 57 S 10 17 30.33 1027 10 16.09344 0 0
11:35 am 11:35 Sunny 14 -9.9 1 -17.5 54 54 S 15 24 30.3 1026 10 16.09344 0 0
11:55 am 11:55 Partly Cloudy 16 -9 2 -16.7 54 54 S 16 26 30.3 1026 10 16.09344 0 0
12:15 pm 12:15 Mostly Cloudy 16 -9.1 2 -16.9 54 54 S 17 28 30.27 1025 10 16.09344 0 0
12:35 pm 12:35 Cloudy 16 -8.8 2 -16.5 54 54 S 13 20 30.27 1025 10 16.09344 0 0
12:55 pm 12:55 Cloudy 17 -8.5 4 -15.8 56 56 S 16 26 30.24 1024 10 16.09344 0 0
1:15 pm 13:15 Cloudy 18 -7.8 5 -15.1 56 56 S 15 24 30.24 1024 10 16.09344 0 0
1:35 pm 13:35 Cloudy 18 -7.6 6 -14.7 57 57 S 14 22 30.21 1023 10 16.09344 0 0
1:55 pm 13:55 Cloudy 19 -7.1 6 -14.3 57 57 S 13 20 30.21 1023 10 16.09344 0 0
2:15 pm 14:15 Cloudy 20 -6.6 6 -14.2 55 55 S 14 22 30.21 1023 10 16.09344 0 0
2:35 pm 14:35 Mostly Cloudy 22 -5.5 7 -13.8 52 52 S 16 26 30.21 1023 10 16.09344 0 0
2:55 pm 14:55 Sunny 22 -5.4 7 -13.8 52 52 S 15 24 30.18 1022 10 16.09344 0 0
3:15 pm 15:15 Sunny 22 -5.4 8 -13.2 55 55 S 13 20 30.18 1022 10 16.09344 0 0
3:35 pm 15:35 Sunny 23 -4.9 9 -12.8 54 54 S 15 24 30.15 1021 10 16.09344 0 0
3:55 pm 15:55 Sunny 24 -4.6 9 -12.6 54 54 S 13 20 30.15 1021 10 16.09344 0 0
4:15 pm 16:15 Sunny 24 -4.7 10 -12.3 56 56 S 14 22 30.15 1021 10 16.09344 0 0
4:35 pm 16:35 Sunny 24 -4.7 10 -12.4 55 55 S 14 22 30.15 1021 10 16.09344 0 0
4:55 pm 16:55 Sunny 22 -5.5 10 -12.5 58 58 SSE 13 20 30.18 1022 10 16.09344 0 0
5:15 pm 17:15 Sunny 22 -5.5 10 -12 61 61 SSE 13 20 30.15 1021 10 16.09344 0 0
5:35 pm 17:35 Sunny 21 -6 10 -12 63 63 SSE 14 22 30.15 1021 10 16.09344 0 0
5:55 pm 17:55 Clear 21 -6 11 -11.8 64 64 SSE 13 20 30.15 1021 10 16.09344 0 0
6:15 pm 18:15 Clear 21 -6.1 11 -11.7 65 65 SSE 12 19 30.15 1021 10 16.09344 0 0
6:35 pm 18:35 Clear 20 -6.4 10 -12 65 65 SSE 14 22 30.15 1021 10 16.09344 0 0
6:55 pm 18:55 Clear 20 -6.8 10 -12.5 64 64 SE 13 20 30.15 1021 10 16.09344 0 0
7:15 pm 19:15 Clear 19 -7.1 9 -12.6 65 65 SSE 13 20 30.15 1021 10 16.09344 0 0
7:35 pm 19:35 Clear 18 -7.6 9 -12.6 68 68 SSE 14 22 30.15 1021 10 16.09344 0 0
7:55 pm 19:55 Clear 18 -7.8 9 -12.7 68 68 SE 13 20 30.15 1021 10 16.09344 0 0
8:15 pm 20:15 Clear 17 -8.2 9 -13 69 69 SE 13 20 30.15 1021 10 16.09344 0 0
8:35 pm 20:35 Clear 17 -8.6 8 -13.5 68 68 SSE 13 20 30.18 1022 10 16.09344 0 0
8:55 pm 20:55 Clear 16 -9 7 -13.8 68 68 SSE 12 19 30.18 1022 10 16.09344 0 0
9:15 pm 21:15 Clear 16 -9.1 7 -13.8 69 69 SSE 13 20 30.18 1022 10 16.09344 0 0
9:35 pm 21:35 Clear 15 -9.2 7 -13.7 70 70 SSE 12 19 30.18 1022 10 16.09344 0 0
9:55 pm 21:55 Clear 15 -9.4 7 -13.7 71 71 SSE 14 22 30.18 1022 10 16.09344 0 0
10:15 pm 22:15 Clear 15 -9.5 7 -14 70 70 SSE 13 20 30.18 1022 10 16.09344 0 0
10:35 pm 22:35 Clear 15 -9.7 7 -14.1 71 71 SSE 15 24 30.18 1022 10 16.09344 0 0
10:55 pm 22:55 Clear 15 -9.6 7 -14.1 70 70 SSE 15 24 30.18 1022 10 16.09344 0 0
11:15 pm 23:15 Clear 15 -9.6 7 -14 71 71 SSE 13 20 30.18 1022 10 16.09344 0 0
11:35 pm 23:35 Partly Cloudy 15 -9.6 7 -13.8 72 72 SSE 10 17 30.18 1022 10 16.09344 0 0
11:55 pm 23:55 Partly Cloudy 15 -9.7 7 -13.8 72 72 SSE 10 17 30.18 1022 10 16.09344 0 0

Powered by AerisWeather